Terminal Aerodrome Forecast
Issued by NWS

Home | Current Version | Previous Version | Text Only | Print | Product List | Glossary On
Versions: 1 2 3 4 5 6 7 8 9 10 11 12 13
000
FTUS42 TJSJ 060500
TAFISX
TAF
TISX 060539Z 0606/0706 08012KT P6SM VCSH FEW030 SCT060
     FM061300 09019G29KT P6SM FEW025 SCT040
     FM062300 07009KT P6SM FEW025
      AMD NOT SKED=

USA.gov is the U.S. government's official web portal to all federal, state and local government web resources and services.